Stations météo

réclame
Mon MeteoGroup
Magdeburg, Allemagne (10361): Température de l'air & dewpoint: 12.01.2019 13:00:00 - 18.01.2019 13:00:00 (CET)Magdeburg, Allemagne (10361): Température de l'air 5cm & Température de l'air -5cm: 12.01.2019 13:00:00 - 18.01.2019 13:00:00 (CET)Magdeburg, Allemagne (10361): Température de l'air -20cm & Température de l'air -100cm: 12.01.2019 13:00:00 - 18.01.2019 13:00:00 (CET)Magdeburg, Allemagne (10361): Vitesse du vent & gusts: 12.01.2019 13:00:00 - 18.01.2019 13:00:00 (CET)Magdeburg, Allemagne (10361): Direction du vent: 12.01.2019 13:00:00 - 18.01.2019 13:00:00 (CET)Magdeburg, Allemagne (10361): reduced air pressure: 12.01.2019 13:00:00 - 18.01.2019 13:00:00 (CET)Magdeburg, Allemagne (10361): visibility: 12.01.2019 13:00:00 - 18.01.2019 13:00:00 (CET)Magdeburg, Allemagne (10361): Ensoleillement: 12.01.2019 13:00:00 - 18.01.2019 13:00:00 (CET)Magdeburg, Allemagne (10361): Quantités de précipitations: 12.01.2019 13:00:00 - 18.01.2019 13:00:00 (CET)
Date & Time tt [°C] td [°C] tt 5cm [°C] tt -5cm [°C] tt -20cm [°C] tt -100cm [°C] ff [km/h] ff [knt] fx [km/h] fx [knt] dd ppp [hPa] vv [km] sd [min] rr [mm]
18.01.2019 13:00:00 - - - - - - - - - - - - - - -
18.01.2019 12:00:00 1,1 -4,0 1,0 0,6 2,6 6,9 13 7 24 13 W 1019,0 22 60 0,0
18.01.2019 11:00:00 0,0 -4,0 -0,4 0,5 2,7 6,9 8 5 21 11 WSW 1018,9 28 60 0,0
18.01.2019 10:00:00 -1,0 -4,4 -1,9 0,5 2,7 6,9 9 5 17 9 W 1018,2 50 60 0,0
18.01.2019 09:00:00 -1,9 -4,5 -4,0 0,5 2,8 6,9 9 5 22 12 WNW 1017,4 55 6 0,0
18.01.2019 08:00:00 -1,8 -4,5 -3,8 0,5 2,8 6,9 12 7 22 12 WNW 1016,2 56 0 0,0
18.01.2019 07:00:00 -1,5 -4,5 -3,4 0,5 2,9 6,9 11 6 25 13 WNW 1015,0 57 0 0,0
18.01.2019 06:00:00 -1,2 -4,4 -3,0 0,5 3,0 6,9 8 5 29 15 NW 1013,7 53 0 0,0
18.01.2019 05:00:00 0,2 -2,9 -0,5 0,6 3,0 6,9 11 6 30 16 NW 1012,5 40 0 0,0
18.01.2019 04:00:00 0,3 -1,6 -0,4 0,6 3,1 6,9 10 5 22 12 NW 1011,0 70 0 0,0
18.01.2019 03:00:00 -0,2 -1,3 -0,8 0,6 3,2 6,9 8 4 35 19 NNW 1009,6 70 0 1,2
18.01.2019 02:00:00 1,7 -1,8 0,8 0,7 3,3 6,9 19 11 36 20 W 1007,5 37 0 0,0
18.01.2019 01:00:00 1,7 -1,8 0,9 0,7 3,4 6,9 16 8 38 20 W 1006,6 63 0 0,0
18.01.2019 00:00:00 2,0 -1,1 1,1 0,8 3,6 6,9 20 11 48 26 W 1005,7 65 0 0,0
17.01.2019 23:00:00 1,9 -1,1 0,8 0,8 3,7 6,9 19 10 41 22 W 1004,6 65 0 0,0
17.01.2019 22:00:00 1,7 -0,7 0,1 1,0 3,9 6,9 21 11 38 20 W 1003,8 63 0 0,0
17.01.2019 21:00:00 1,9 0,2 0,5 1,7 4,0 6,9 23 12 45 25 W 1003,0 54 0 0,2
17.01.2019 20:00:00 2,3 1,0 1,5 1,9 4,2 6,9 16 9 36 20 W 1002,2 11 0 0,0
17.01.2019 19:00:00 1,8 0,5 0,8 1,7 4,3 6,9 17 9 32 17 W 1000,9 26 0 0,0
17.01.2019 18:00:00 1,3 0,5 0,2 1,8 4,4 6,9 10 6 28 15 W 1000,0 17 0 3,5
17.01.2019 17:00:00 2,9 1,5 2,2 4,1 4,4 6,9 9 5 31 17 WNW 999,0 3,1 0 1,9
17.01.2019 16:00:00 6,5 1,5 5,2 4,8 4,3 6,9 6 4 23 12 SW 998,4 70 7 0,0
17.01.2019 15:00:00 6,8 0,4 5,5 5,0 4,2 6,9 12 6 35 19 SW 999,0 70 9 0,0
17.01.2019 14:00:00 6,9 -0,5 6,1 5,5 4,0 6,9 19 11 40 21 WSW 999,5 70 32 0,0
17.01.2019 13:00:00 7,2 0,6 7,4 5,4 3,9 6,9 21 11 36 19 WSW 999,9 43 60 0,0
17.01.2019 12:00:00 5,8 1,1 4,9 4,0 3,8 6,9 15 8 24 13 WSW 1000,8 66 0 0,0
17.01.2019 11:00:00 5,8 1,1 5,0 3,8 3,8 6,9 14 8 26 14 WSW 1001,0 70 7 0,0
17.01.2019 10:00:00 4,9 1,6 3,7 2,9 3,8 6,9 12 6 25 14 WSW 1000,9 51 0 0,0
17.01.2019 09:00:00 4,9 1,7 3,6 2,9 3,7 6,9 12 6 31 17 WSW 1000,7 70 0 0,0
17.01.2019 08:00:00 5,3 1,7 4,1 3,1 3,7 6,9 16 9 30 16 WSW 1000,1 70 0 0,0
17.01.2019 07:00:00 5,5 1,5 4,6 3,1 3,7 6,9 16 8 31 17 WSW 1000,0 70 0 0,0
17.01.2019 06:00:00 5,5 1,3 4,3 2,8 3,7 6,9 15 8 30 16 SW 999,8 47 0 0,0
17.01.2019 05:00:00 5,0 1,4 3,9 2,6 3,7 6,9 10 6 26 14 SW 999,6 40 0 0,0
17.01.2019 04:00:00 4,9 0,7 3,9 2,2 3,8 6,9 17 9 28 15 SW 999,3 33 0 0,0
17.01.2019 03:00:00 3,8 0,0 2,6 1,6 3,9 6,9 11 6 17 9 SW 999,6 31 0 0,0
17.01.2019 02:00:00 3,6 -0,1 1,3 1,4 4,0 6,9 8 5 27 14 WSW 1000,2 33 0 0,0
17.01.2019 01:00:00 4,1 0,1 2,3 1,5 4,2 6,9 12 6 20 11 SW 1000,5 40 0 0,0
17.01.2019 00:00:00 3,6 0,0 1,7 1,6 4,3 6,9 10 5 19 10 SSW 1001,2 30 0 0,0
16.01.2019 23:00:00 3,6 0,1 1,9 2,1 4,5 6,9 12 7 22 12 SSW 1002,1 28 0 0,0
16.01.2019 22:00:00 4,1 0,2 2,4 2,6 4,6 6,9 10 5 22 12 SW 1002,9 34 0 0,0
16.01.2019 21:00:00 4,6 0,3 3,1 3,2 4,6 6,9 13 7 19 11 SSW 1003,5 39 0 0,0
16.01.2019 20:00:00 4,9 0,5 3,6 3,6 4,7 6,9 9 5 25 13 SSW 1004,3 33 0 0,0
16.01.2019 19:00:00 5,2 0,9 4,1 4,0 4,8 6,9 16 9 24 13 SW 1005,0 43 0 0,0
16.01.2019 18:00:00 5,6 1,4 4,6 4,3 4,8 6,9 15 8 32 17 SSW 1005,7 39 0 0,0
16.01.2019 17:00:00 6,3 1,9 5,2 4,8 4,7 6,9 18 10 30 16 SW 1005,9 51 0 0,0
16.01.2019 16:00:00 6,9 2,8 6,1 5,4 4,7 6,9 11 6 33 18 SSW 1006,4 68 0 0,0
16.01.2019 15:00:00 7,3 3,1 6,5 5,7 4,6 6,9 15 8 26 14 SW 1006,8 70 0 0,0
16.01.2019 14:00:00 7,6 3,5 7,2 5,9 4,5 6,9 9 5 26 14 SSW 1007,1 70 0 0,0
16.01.2019 13:00:00 7,6 3,4 6,9 5,6 4,4 6,9 15 8 29 16 SW 1008,0 70 0 0,0
16.01.2019 12:00:00 7,5 3,1 6,8 5,3 4,3 6,9 13 7 24 13 SW 1008,8 70 0 0,0
16.01.2019 11:00:00 7,3 3,3 6,6 5,1 4,3 6,9 13 7 29 15 SW 1009,4 54 0 0,0
16.01.2019 10:00:00 7,1 3,3 6,3 4,7 4,2 6,9 17 9 32 18 SW 1009,7 45 0 0,0
16.01.2019 09:00:00 7,1 3,2 6,1 4,4 4,2 6,9 18 10 32 17 WSW 1009,5 58 0 0,0
16.01.2019 08:00:00 6,7 3,3 5,7 4,3 4,2 6,9 13 7 22 12 WSW 1009,6 35 0 0,0
16.01.2019 07:00:00 6,5 3,2 5,5 4,2 4,2 6,9 14 7 33 18 WSW 1009,9 22 0 0,0
16.01.2019 06:00:00 6,5 2,9 5,6 4,1 4,2 7,0 15 8 31 17 W 1010,2 30 0 0,0
16.01.2019 05:00:00 5,9 3,2 4,2 4,0 4,1 7,0 15 8 43 23 WSW 1010,5 19 0 0,0
16.01.2019 04:00:00 6,5 3,6 5,7 4,6 4,1 7,0 21 12 44 24 W 1011,0 16 0 0,0
16.01.2019 03:00:00 6,7 4,2 6,0 4,8 4,0 7,0 21 11 43 23 W 1010,8 16 0 0,0
16.01.2019 02:00:00 6,9 4,3 6,1 4,8 3,9 7,0 22 12 44 24 W 1010,4 19 0 0,0
16.01.2019 01:00:00 6,8 4,3 6,1 4,7 3,8 7,0 24 13 47 26 W 1010,3 18 0 0,0
16.01.2019 00:00:00 6,3 4,5 5,5 4,5 3,8 7,0 23 13 49 26 W 1010,4 10 0 0,0
15.01.2019 23:00:00 6,6 4,0 5,8 4,4 3,7 7,0 23 13 50 27 W 1010,3 13 0 0,0
15.01.2019 22:00:00 6,6 4,0 5,9 4,4 3,6 7,0 25 13 48 26 W 1010,2 12 0 0,0
15.01.2019 21:00:00 6,5 4,2 5,8 4,3 3,5 7,0 25 13 48 26 W 1010,2 12 0 0,0
15.01.2019 20:00:00 6,2 4,1 5,5 4,2 3,4 7,0 23 12 42 23 W 1010,2 10 0 0,0
15.01.2019 19:00:00 6,4 3,6 5,6 4,0 3,3 7,0 23 13 45 24 W 1010,0 13 0 0,0
15.01.2019 18:00:00 6,0 3,7 5,2 3,9 3,1 7,0 23 13 48 26 W 1010,1 12 0 0,0
15.01.2019 17:00:00 6,3 3,0 5,5 3,8 3,0 7,0 20 11 43 23 W 1010,0 18 0 0,0
15.01.2019 16:00:00 6,2 2,9 5,4 3,8 2,8 7,0 22 12 41 22 W 1010,4 17 0 0,0
15.01.2019 15:00:00 5,5 2,8 4,9 3,5 2,7 7,0 22 12 42 23 WSW 1010,6 16 0 0,0
15.01.2019 14:00:00 5,2 2,8 4,5 3,3 2,5 7,0 24 13 47 26 W 1011,4 12 0 0,0
15.01.2019 13:00:00 4,6 2,3 3,7 2,4 2,5 7,0 22 12 39 21 W 1011,7 16 0 0,0
15.01.2019 12:00:00 3,7 1,7 2,7 1,5 2,5 7,0 21 11 48 26 W 1012,5 11 0 0,0
15.01.2019 11:00:00 3,7 0,6 3,0 0,4 2,5 7,0 23 12 48 26 W 1012,8 29 0 0,0
15.01.2019 10:00:00 2,7 0,2 1,9 0,4 2,6 7,0 27 15 52 28 W 1013,5 27 0 -
15.01.2019 09:00:00 2,7 -1,5 1,8 0,4 2,6 7,0 26 14 43 23 W 1013,5 43 0 0,0
15.01.2019 08:00:00 2,2 -1,3 0,6 0,4 2,6 7,0 21 11 40 22 W 1013,7 50 0 0,0
15.01.2019 07:00:00 2,6 -1,2 1,1 0,4 2,7 7,0 20 11 41 22 W 1013,7 47 0 0,0
15.01.2019 06:00:00 2,6 -1,3 1,5 0,4 2,7 7,0 19 10 40 21 W 1014,1 42 0 0,0
15.01.2019 05:00:00 2,6 -1,3 1,5 0,4 2,7 7,0 19 11 40 22 W 1014,2 40 0 0,0
15.01.2019 04:00:00 2,7 -1,2 1,6 0,4 2,8 7,0 18 10 39 21 W 1014,0 35 0 0,0
15.01.2019 03:00:00 2,5 -1,4 1,4 0,5 2,8 7,0 19 11 39 21 WNW 1013,7 37 0 0,0
15.01.2019 02:00:00 2,1 -1,5 0,8 0,5 2,9 7,0 19 10 41 22 WNW 1013,5 38 0 0,0
15.01.2019 01:00:00 2,3 -1,6 1,4 0,5 2,9 7,0 18 10 40 22 WNW 1013,5 41 0 0,0
15.01.2019 00:00:00 2,1 -1,5 1,2 0,5 3,0 7,0 18 10 41 22 W 1013,2 37 0 0,0
14.01.2019 23:00:00 1,7 -1,5 0,7 0,5 3,1 7,0 16 9 42 23 W 1012,9 30 0 0,0
14.01.2019 22:00:00 1,6 -1,7 0,8 0,5 3,1 7,0 23 13 48 26 WNW 1012,6 45 0 0,0
14.01.2019 21:00:00 1,2 -2,1 -0,1 0,5 3,2 7,0 18 10 41 22 WNW 1012,1 46 0 0,0
14.01.2019 20:00:00 1,1 -2,2 -0,4 0,6 3,3 7,0 18 10 37 20 W 1011,7 51 0 0,0
14.01.2019 19:00:00 0,9 -2,8 -0,6 0,6 3,4 7,0 13 7 33 18 WNW 1011,0 57 0 0,0
14.01.2019 18:00:00 1,2 -3,1 0,0 0,6 3,5 7,0 12 6 36 19 NW 1010,2 61 0 0,0
14.01.2019 17:00:00 1,4 -3,2 -0,1 0,3 3,6 7,0 15 8 39 21 NW 1009,1 56 0 0,0
14.01.2019 16:00:00 1,9 -3,1 0,6 1,5 3,6 7,0 18 10 40 22 NW 1007,6 59 0 0,0
14.01.2019 15:00:00 2,0 -1,9 1,3 2,3 3,7 7,0 16 8 53 28 NW 1006,8 59 3 0,1
14.01.2019 14:00:00 2,7 -2,7 2,1 2,5 3,6 7,0 24 13 52 28 NW 1005,7 47 10 0,1
14.01.2019 13:00:00 2,8 -2,8 2,1 2,4 3,6 7,0 18 10 48 26 NW 1005,2 53 2 0,0
14.01.2019 12:00:00 4,1 -3,1 4,5 2,4 3,6 7,0 19 11 50 27 NW 1004,4 45 23 0,0
14.01.2019 11:00:00 3,3 -2,8 2,9 1,9 3,7 7,0 21 12 49 26 WNW 1004,5 47 13 0,0
14.01.2019 10:00:00 3,2 -1,8 2,5 1,3 3,8 7,0 18 10 45 24 NW 1004,0 44 0 0,0
14.01.2019 09:00:00 2,5 -1,9 1,3 0,6 4,0 7,0 15 8 43 23 NW 1003,0 47 0 0,0
14.01.2019 08:00:00 2,5 -1,6 1,2 0,8 4,1 7,0 15 8 59 32 NW 1002,0 46 0 0,0
14.01.2019 07:00:00 3,5 -1,4 2,1 0,9 4,3 7,0 22 12 48 26 WNW 1000,6 27 0 0,0
14.01.2019 06:00:00 3,1 -1,9 1,5 0,9 4,5 7,0 18 10 42 23 NW 1000,6 32 0 0,0
14.01.2019 05:00:00 3,7 -2,3 1,9 1,4 4,7 7,0 23 12 55 30 NW 999,5 32 0 0,0
14.01.2019 04:00:00 4,1 -1,8 2,6 1,9 4,9 7,0 25 13 54 29 NW 997,8 29 0 0,0
14.01.2019 03:00:00 4,6 -0,8 3,1 2,4 5,1 7,0 20 11 55 30 NW 996,4 33 0 0,0
14.01.2019 02:00:00 5,2 -1,1 3,7 3,1 5,2 6,9 22 12 53 29 NW 995,0 40 0 0,0
14.01.2019 01:00:00 5,8 2,0 4,8 3,8 5,3 6,9 18 10 54 29 NW 993,2 58 0 0,1
14.01.2019 00:00:00 6,4 3,2 4,8 4,5 5,4 6,9 22 12 53 29 WNW 992,2 52 0 0,0
13.01.2019 23:00:00 6,6 3,0 5,2 4,7 5,4 6,9 24 13 57 31 WNW 991,8 70 0 0,0
13.01.2019 22:00:00 7,0 3,5 5,7 5,0 5,5 6,9 25 13 53 29 WNW 991,7 32 0 0,0
13.01.2019 21:00:00 6,5 3,2 5,3 4,9 5,5 6,9 24 13 51 28 WNW 991,6 70 0 0,0
13.01.2019 20:00:00 6,5 3,5 5,1 5,4 5,5 6,9 23 13 61 33 WNW 991,5 70 0 1,4
13.01.2019 19:00:00 8,4 6,4 7,0 6,6 5,4 7,0 24 13 51 28 W 990,2 20 0 1,0
13.01.2019 18:00:00 8,3 7,0 7,2 6,7 5,3 7,0 23 13 42 23 W 991,1 7 0 1,1
13.01.2019 17:00:00 8,5 7,0 7,4 6,8 5,2 7,0 20 11 39 21 W 992,5 7 0 0,2
13.01.2019 16:00:00 8,7 7,1 7,9 6,9 5,1 7,0 20 11 41 22 W 993,3 70 0 0,8
13.01.2019 15:00:00 8,2 7,3 7,4 6,9 5,0 7,0 18 10 38 20 W 994,3 5 0 0,4
13.01.2019 14:00:00 8,2 7,0 7,5 6,8 4,9 7,0 22 12 42 23 W 995,2 14 0 0,0
13.01.2019 13:00:00 8,0 6,1 7,5 6,3 4,8 7,0 21 12 42 23 WSW 996,6 49 0 0,0
13.01.2019 12:00:00 7,1 4,1 6,5 5,7 4,7 7,0 18 10 34 18 SW 998,0 42 0 0,0
13.01.2019 11:00:00 6,7 4,1 6,2 5,4 4,6 7,0 18 10 41 22 SW 999,8 70 0 0,0
13.01.2019 10:00:00 6,5 4,3 5,3 4,9 4,6 7,0 20 11 37 20 WSW 1001,6 36 0 0,4
13.01.2019 09:00:00 6,3 4,0 5,0 4,7 4,6 7,0 17 9 40 21 W 1002,7 27 0 0,1
13.01.2019 08:00:00 6,6 3,7 5,8 4,7 4,6 7,0 16 8 36 19 W 1003,3 70 0 0,0
13.01.2019 07:00:00 6,4 4,4 5,3 4,7 4,6 7,0 16 9 - - W 1003,8 27 0 0,0
13.01.2019 06:00:00 6,5 3,5 5,3 4,5 4,5 7,0 18 10 41 22 W 1004,2 65 0 0,0
13.01.2019 05:00:00 6,3 4,2 5,1 4,7 4,5 7,0 15 8 34 19 W 1004,8 59 0 0,0
13.01.2019 04:00:00 6,2 4,0 5,1 4,6 4,5 7,0 21 11 40 22 W 1005,2 35 0 0,0
13.01.2019 03:00:00 6,3 3,7 5,0 4,5 4,5 7,0 17 9 36 19 W 1005,3 12 0 0,0
13.01.2019 02:00:00 6,0 3,9 4,9 4,5 4,5 7,0 15 8 36 20 W 1005,4 63 0 0,1
13.01.2019 01:00:00 6,2 3,5 5,3 4,5 4,5 7,0 16 9 38 20 W 1005,5 56 0 0,0
13.01.2019 00:00:00 6,4 3,1 5,4 4,4 4,5 7,0 18 10 33 18 W 1005,7 70 0 0,0
12.01.2019 23:00:00 6,4 3,3 5,5 4,5 4,5 7,0 15 8 37 20 W 1006,1 65 0 0,0
12.01.2019 22:00:00 6,4 3,6 5,5 4,4 4,5 7,0 17 9 32 18 W 1006,3 51 0 0,0
12.01.2019 21:00:00 6,1 3,4 5,0 4,3 4,5 7,0 15 8 32 17 W 1006,7 49 0 0,0
12.01.2019 20:00:00 6,3 4,2 5,3 4,5 4,4 7,0 15 8 35 19 W 1007,0 34 0 0,0
12.01.2019 19:00:00 6,1 4,3 4,9 4,6 4,4 7,0 16 9 44 24 W 1007,0 40 0 0,1
12.01.2019 18:00:00 5,9 4,0 4,8 4,6 4,4 7,0 21 11 41 22 W 1007,3 13 0 0,1
12.01.2019 17:00:00 5,7 3,8 4,6 4,6 4,4 7,0 21 12 38 21 WSW 1008,2 11 0 0,4
12.01.2019 16:00:00 5,4 3,6 4,4 4,9 4,3 7,0 16 8 37 20 WSW 1009,1 23 0 0,0
12.01.2019 15:00:00 5,4 3,5 4,6 5,0 4,3 7,0 19 11 37 20 WSW 1010,0 8 0 0,1
12.01.2019 14:00:00 5,6 3,2 4,9 5,2 4,1 7,0 16 8 39 21 WSW 1011,2 32 0 0,0
12.01.2019 13:00:00 6,0 3,0 5,2 5,5 4,0 7,0 18 10 39 21 W 1012,8 35 0 0,1

tt = Température de l'air
td = dewpoint
tt 5cm = Température de l'air 5cm
tt -5cm = Température de l'air -5cm
tt -20cm = Température de l'air -20cm
tt -100cm = Température de l'air -100cm
ff = Vitesse du vent
fx = gusts
dd = Direction du vent
ppp = reduced air pressure
vv = visibility
sd = Ensoleillement
rr = Quantités de précipitations

stations d'obs. à proximité